User: anonymous   Login
Location: Laguna de la Cañada del Gallo
(40.3974°N, 5.2096°W)
Time: 21:19:58
(UTC+00:00)
Language:

Spot 2 Rocket - Orbit

View from above orbital plane
View from above orbital plane
View from above satellite
View from above satellite

Ground track
Ground track

The orbit data is extracted from the following two-line orbital elements,

1 20443U 90005H   24170.41682309  .00000443  00000-0  15741-3 0  9996
2 20443  98.3933 235.9297 0009113 298.4550  61.5719 14.38970353802275
Epoch (UTC): 18 June 2024 10:00:13
Eccentricity: 0.0009113
inclination: 98.3933°
perigee height: 755 km
apogee height: 768 km
right ascension of ascending node: 235.9297°
argument of perigee: 298.4550°
revolutions per day: 14.38970353
mean anomaly at epoch: 61.5719°
orbit number at epoch: 80227

The dashed part of the orbit path shows where the satellite is in the earth's shadow,  

DLR